Time,TemperatureF,DewpointF,PressureIn,WindDirection,WindDirectionDegrees,WindSpeedMPH,WindSpeedGustMPH,Humidity,HourlyPrecipIn,Conditions,Clouds,dailyrainin,SoftwareType,DateUTC
2013-05-13 00:03:00,43.0,30.0,30.05,WNW,300,5.0,8.0,61,0.00,,,0.03,,2013-05-13 04:03:00,
2013-05-13 00:12:00,43.0,30.0,30.05,WNW,300,5.0,8.0,61,0.00,,,0.03,,2013-05-13 04:12:00,
2013-05-13 00:23:00,43.0,31.0,30.05,West,276,5.0,8.0,62,0.00,,,0.03,,2013-05-13 04:23:00,
2013-05-13 00:33:00,42.0,30.0,30.05,WNW,296,7.0,9.0,62,0.00,,,0.03,,2013-05-13 04:33:00,
2013-05-13 00:42:00,42.0,30.0,30.05,WNW,296,7.0,9.0,62,0.00,,,0.03,,2013-05-13 04:42:00,
2013-05-13 00:53:00,42.0,31.0,30.05,West,272,5.0,8.0,64,0.00,,,0.03,,2013-05-13 04:53:00,
2013-05-13 01:02:00,42.0,31.0,30.06,West,277,7.0,10.0,64,0.00,,,0.03,,2013-05-13 05:02:00,
2013-05-13 01:12:00,42.0,31.0,30.06,West,277,7.0,10.0,64,0.00,,,0.03,,2013-05-13 05:12:00,
2013-05-13 01:22:00,41.0,30.0,30.06,West,267,5.0,8.0,65,0.00,,,0.03,,2013-05-13 05:22:00,
2013-05-13 01:32:00,41.0,31.0,30.06,West,264,4.0,8.0,66,0.00,,,0.03,,2013-05-13 05:32:00,
2013-05-13 01:42:00,41.0,31.0,30.06,West,264,4.0,8.0,66,0.00,,,0.03,,2013-05-13 05:42:00,
2013-05-13 01:52:00,41.0,31.0,30.06,WNW,290,5.0,9.0,66,0.00,,,0.03,,2013-05-13 05:52:00,
2013-05-13 02:01:00,40.0,30.0,30.06,West,273,5.0,8.0,67,0.00,,,0.03,,2013-05-13 06:01:00,
2013-05-13 02:11:00,40.0,30.0,30.06,West,273,5.0,8.0,67,0.00,,,0.03,,2013-05-13 06:11:00,
2013-05-13 02:21:00,40.0,30.0,30.05,WNW,287,4.0,10.0,68,0.00,,,0.03,,2013-05-13 06:21:00,
2013-05-13 02:32:00,39.0,29.0,30.06,West,273,6.0,11.0,68,0.00,,,0.03,,2013-05-13 06:32:00,
2013-05-13 02:42:00,39.0,29.0,30.06,West,273,6.0,11.0,68,0.00,,,0.03,,2013-05-13 06:42:00,
2013-05-13 02:52:00,39.0,30.0,30.06,West,273,0.0,6.0,69,0.00,,,0.03,,2013-05-13 06:52:00,
2013-05-13 03:01:00,39.0,30.0,30.05,WNW,283,0.0,6.0,71,0.00,,,0.03,,2013-05-13 07:01:00,
2013-05-13 03:11:00,39.0,30.0,30.05,WNW,283,0.0,6.0,71,0.00,,,0.03,,2013-05-13 07:11:00,
2013-05-13 03:22:00,38.0,30.0,30.05,WNW,283,1.0,4.0,74,0.00,,,0.03,,2013-05-13 07:22:00,
2013-05-13 03:32:00,37.0,30.0,30.05,WNW,283,2.0,6.0,75,0.00,,,0.01,,2013-05-13 07:32:00,
2013-05-13 03:42:00,37.0,30.0,30.05,WNW,283,2.0,6.0,75,0.00,,,0.01,,2013-05-13 07:42:00,
2013-05-13 03:52:00,37.0,29.0,30.05,WNW,283,1.0,6.0,73,0.00,,,0.01,,2013-05-13 07:52:00,
2013-05-13 04:02:00,37.0,29.0,30.05,WNW,283,0.0,0.0,73,0.00,,,0.01,,2013-05-13 08:02:00,
2013-05-13 04:11:00,37.0,29.0,30.05,WNW,283,0.0,0.0,73,0.00,,,0.01,,2013-05-13 08:11:00,
2013-05-13 04:21:00,36.0,29.0,30.05,WNW,283,0.0,0.0,74,0.00,,,0.01,,2013-05-13 08:21:00,
2013-05-13 04:32:00,36.0,29.0,30.04,WNW,283,0.0,0.0,76,0.00,,,0.01,,2013-05-13 08:32:00,
2013-05-13 04:42:00,36.0,29.0,30.04,WNW,283,0.0,0.0,76,0.00,,,0.01,,2013-05-13 08:42:00,
2013-05-13 04:52:00,35.0,29.0,30.05,WNW,283,0.0,1.0,77,0.00,,,0.01,,2013-05-13 08:52:00,
2013-05-13 05:01:00,36.0,29.0,30.05,WSW,258,0.0,5.0,76,0.00,,,0.01,,2013-05-13 09:01:00,
2013-05-13 05:11:00,36.0,29.0,30.05,WSW,258,0.0,5.0,76,0.00,,,0.01,,2013-05-13 09:11:00,
2013-05-13 05:21:00,36.0,29.0,30.05,WSW,258,1.0,4.0,74,0.00,,,0.01,,2013-05-13 09:21:00,
2013-05-13 05:33:00,36.0,28.0,30.05,WSW,258,0.0,2.0,73,0.00,,,0.01,,2013-05-13 09:33:00,
2013-05-13 05:42:00,36.0,28.0,30.05,WSW,258,0.0,2.0,73,0.00,,,0.01,,2013-05-13 09:42:00,
2013-05-13 05:52:00,37.0,30.0,30.05,West,274,1.0,4.0,76,0.00,,,0.01,,2013-05-13 09:52:00,
2013-05-13 06:03:00,37.0,28.0,30.05,West,277,2.0,6.0,71,0.00,,,0.01,,2013-05-13 10:03:00,
2013-05-13 06:12:00,37.0,28.0,30.05,West,277,2.0,6.0,71,0.00,,,0.01,,2013-05-13 10:12:00,
2013-05-13 06:22:00,37.0,28.0,30.06,West,262,3.0,7.0,70,0.00,,,0.01,,2013-05-13 10:22:00,
2013-05-13 06:33:00,37.0,27.0,30.07,West,281,4.0,6.0,67,0.00,,,0.01,,2013-05-13 10:33:00,
2013-05-13 06:42:00,37.0,27.0,30.07,West,281,4.0,6.0,67,0.00,,,0.01,,2013-05-13 10:42:00,
2013-05-13 06:52:00,38.0,27.0,30.07,West,269,7.0,9.0,65,0.00,,,0.01,,2013-05-13 10:52:00,
2013-05-13 07:02:00,38.0,28.0,30.07,NW,307,2.0,7.0,66,0.00,,,0.01,,2013-05-13 11:02:00,
2013-05-13 07:12:00,38.0,28.0,30.07,NW,307,2.0,7.0,66,0.00,,,0.01,,2013-05-13 11:12:00,
2013-05-13 07:22:00,38.0,28.0,30.08,West,273,5.0,9.0,66,0.00,,,0.01,,2013-05-13 11:22:00,
2013-05-13 07:32:00,38.0,28.0,30.09,WSW,255,3.0,8.0,67,0.00,,,0.01,,2013-05-13 11:32:00,
2013-05-13 07:42:00,38.0,28.0,30.09,WSW,255,3.0,8.0,67,0.00,,,0.01,,2013-05-13 11:42:00,
2013-05-13 07:52:00,38.0,28.0,30.09,West,272,6.0,8.0,68,0.00,,,0.01,,2013-05-13 11:52:00,
2013-05-13 08:01:00,38.0,28.0,30.09,WNW,303,5.0,11.0,67,0.00,,,0.01,,2013-05-13 12:01:00,
2013-05-13 08:12:00,38.0,28.0,30.09,WNW,303,5.0,11.0,67,0.00,,,0.01,,2013-05-13 12:12:00,
2013-05-13 08:21:00,38.0,28.0,30.10,WNW,303,6.0,8.0,66,0.00,,,0.01,,2013-05-13 12:21:00,
2013-05-13 08:32:00,39.0,29.0,30.10,West,266,3.0,7.0,67,0.00,,,0.01,,2013-05-13 12:32:00,
2013-05-13 08:42:00,39.0,29.0,30.10,West,266,3.0,7.0,67,0.00,,,0.01,,2013-05-13 12:42:00,
2013-05-13 08:52:00,39.0,28.0,30.11,NW,311,5.0,8.0,64,0.00,,,0.01,,2013-05-13 12:52:00,
2013-05-13 09:01:00,40.0,28.0,30.11,WNW,286,4.0,7.0,62,0.00,,,0.01,,2013-05-13 13:01:00,
2013-05-13 09:11:00,40.0,28.0,30.11,WNW,286,4.0,7.0,62,0.00,,,0.01,,2013-05-13 13:11:00,
2013-05-13 09:21:00,40.0,27.0,30.12,WNW,282,5.0,9.0,60,0.00,,,0.01,,2013-05-13 13:21:00,
2013-05-13 09:32:00,41.0,27.0,30.12,West,273,8.0,12.0,57,0.00,,,0.01,,2013-05-13 13:32:00,
2013-05-13 09:42:00,41.0,27.0,30.12,West,273,8.0,12.0,57,0.00,,,0.01,,2013-05-13 13:42:00,
2013-05-13 09:52:00,41.0,27.0,30.13,WNW,283,6.0,13.0,57,0.00,,,0.01,,2013-05-13 13:52:00,
2013-05-13 10:02:00,42.0,28.0,30.13,WNW,289,7.0,16.0,57,0.00,,,0.01,,2013-05-13 14:02:00,
2013-05-13 10:11:00,42.0,28.0,30.13,WNW,289,7.0,16.0,57,0.00,,,0.01,,2013-05-13 14:11:00,
2013-05-13 10:22:00,43.0,28.0,30.13,WNW,299,6.0,13.0,55,0.00,,,0.01,,2013-05-13 14:22:00,
2013-05-13 10:32:00,43.0,29.0,30.13,WSW,253,4.0,14.0,57,0.00,,,0.01,,2013-05-13 14:32:00,
2013-05-13 10:41:00,43.0,29.0,30.13,WSW,253,4.0,14.0,57,0.00,,,0.01,,2013-05-13 14:41:00,
2013-05-13 10:52:00,44.0,28.0,30.14,NW,307,12.0,17.0,52,0.00,,,0.01,,2013-05-13 14:52:00,
2013-05-13 11:01:00,44.0,28.0,30.13,West,280,5.0,14.0,52,0.00,,,0.01,,2013-05-13 15:01:00,
2013-05-13 11:11:00,44.0,28.0,30.13,West,280,5.0,14.0,52,0.00,,,0.01,,2013-05-13 15:11:00,
2013-05-13 11:21:00,44.0,28.0,30.14,NW,317,7.0,19.0,54,0.00,,,0.01,,2013-05-13 15:21:00,
2013-05-13 11:32:00,45.0,28.0,30.14,West,277,7.0,22.0,51,0.00,,,0.00,,2013-05-13 15:32:00,
2013-05-13 11:42:00,45.0,28.0,30.14,West,277,7.0,22.0,51,0.00,,,0.00,,2013-05-13 15:42:00,
2013-05-13 11:53:00,45.0,28.0,30.14,NW,323,10.0,19.0,51,0.00,,,0.00,,2013-05-13 15:53:00,
2013-05-13 12:03:00,44.0,27.0,30.14,West,278,8.0,21.0,51,0.00,,,0.00,,2013-05-13 16:03:00,
2013-05-13 12:12:00,44.0,27.0,30.14,West,278,8.0,21.0,51,0.00,,,0.00,,2013-05-13 16:12:00,
2013-05-13 12:21:00,45.0,27.0,30.14,West,281,9.0,20.0,50,0.00,,,0.00,,2013-05-13 16:21:00,
2013-05-13 12:33:00,45.0,28.0,30.14,WNW,298,7.0,14.0,52,0.00,,,0.00,,2013-05-13 16:33:00,
2013-05-13 12:42:00,45.0,28.0,30.14,WNW,291,6.0,21.0,52,0.00,,,0.00,,2013-05-13 16:42:00,
2013-05-13 12:53:00,45.0,28.0,30.14,WNW,291,6.0,21.0,52,0.00,,,0.00,,2013-05-13 16:53:00,
2013-05-13 13:02:00,45.0,28.0,30.13,WSW,254,9.0,18.0,51,0.00,,,0.00,,2013-05-13 17:02:00,
2013-05-13 13:12:00,45.0,28.0,30.13,WSW,254,9.0,18.0,51,0.00,,,0.00,,2013-05-13 17:12:00,
2013-05-13 13:21:00,47.0,29.0,30.13,SW,226,9.0,21.0,49,0.00,,,0.00,,2013-05-13 17:21:00,
2013-05-13 13:32:00,46.0,27.0,30.13,West,275,9.0,18.0,47,0.00,,,0.00,,2013-05-13 17:32:00,
2013-05-13 13:42:00,46.0,27.0,30.13,West,275,9.0,18.0,47,0.00,,,0.00,,2013-05-13 17:42:00,
2013-05-13 13:54:00,46.0,26.0,30.12,WNW,297,9.0,16.0,45,0.00,,,0.00,,2013-05-13 17:54:00,
2013-05-13 14:03:00,46.0,27.0,30.12,NW,320,9.0,19.0,48,0.00,,,0.00,,2013-05-13 18:03:00,
2013-05-13 14:13:00,46.0,27.0,30.12,NW,320,9.0,19.0,48,0.00,,,0.00,,2013-05-13 18:13:00,
2013-05-13 14:23:00,47.0,29.0,30.12,NW,322,7.0,16.0,50,0.00,,,0.00,,2013-05-13 18:23:00,
2013-05-13 14:32:00,46.0,27.0,30.12,NW,323,13.0,20.0,48,0.00,,,0.00,,2013-05-13 18:32:00,
2013-05-13 14:42:00,46.0,31.0,30.12,WNW,296,6.0,15.0,56,0.00,,,0.00,,2013-05-13 18:42:00,
2013-05-13 14:52:00,46.0,31.0,30.12,WNW,296,6.0,15.0,56,0.00,,,0.00,,2013-05-13 18:52:00,
2013-05-13 15:01:00,46.0,28.0,30.12,WNW,300,9.0,18.0,49,0.00,,,0.00,,2013-05-13 19:01:00,
2013-05-13 15:11:00,46.0,28.0,30.12,WNW,300,9.0,18.0,49,0.00,,,0.00,,2013-05-13 19:11:00,
2013-05-13 15:22:00,44.0,31.0,30.13,WNW,296,7.0,24.0,59,0.00,,,0.00,,2013-05-13 19:22:00,
2013-05-13 15:32:00,44.0,30.0,30.13,West,277,9.0,16.0,58,0.00,,,0.00,,2013-05-13 19:32:00,
2013-05-13 15:44:00,44.0,30.0,30.13,West,277,9.0,16.0,58,0.00,,,0.00,,2013-05-13 19:44:00,
2013-05-13 15:53:00,46.0,32.0,30.13,WNW,284,4.0,13.0,59,0.00,,,0.00,,2013-05-13 19:53:00,
2013-05-13 16:02:00,46.0,31.0,30.12,NW,311,11.0,17.0,55,0.00,,,0.00,,2013-05-13 20:02:00,
2013-05-13 16:11:00,46.0,31.0,30.12,NW,311,11.0,17.0,55,0.00,,,0.00,,2013-05-13 20:11:00,
2013-05-13 16:23:00,42.0,33.0,30.14,SSW,198,10.0,35.0,71,0.00,,,0.00,,2013-05-13 20:23:00,
2013-05-13 16:34:00,41.0,33.0,30.13,SW,227,2.0,7.0,74,0.00,,,0.00,,2013-05-13 20:34:00,
2013-05-13 16:44:00,41.0,33.0,30.13,SW,227,2.0,7.0,74,0.00,,,0.00,,2013-05-13 20:44:00,
2013-05-13 16:53:00,44.0,35.0,30.12,NW,319,6.0,8.0,71,0.00,,,0.00,,2013-05-13 20:53:00,
2013-05-13 17:03:00,45.0,32.0,30.12,WNW,300,12.0,22.0,61,0.00,,,0.00,,2013-05-13 21:03:00,
2013-05-13 17:14:00,45.0,32.0,30.12,WNW,300,12.0,22.0,61,0.00,,,0.00,,2013-05-13 21:14:00,
2013-05-13 17:23:00,43.0,33.0,30.13,NNW,329,9.0,30.0,68,0.00,,,0.00,,2013-05-13 21:23:00,
2013-05-13 17:33:00,43.0,34.0,30.13,WNW,295,6.0,11.0,69,0.00,,,0.00,,2013-05-13 21:33:00,
2013-05-13 17:43:00,43.0,34.0,30.13,WNW,295,6.0,11.0,69,0.00,,,0.00,,2013-05-13 21:43:00,
2013-05-13 17:53:00,44.0,33.0,30.12,WNW,298,6.0,13.0,65,0.00,,,0.00,,2013-05-13 21:53:00,
2013-05-13 18:02:00,46.0,33.0,30.12,West,259,7.0,14.0,61,0.00,,,0.00,,2013-05-13 22:02:00,
2013-05-13 18:12:00,46.0,33.0,30.12,West,259,7.0,14.0,61,0.00,,,0.00,,2013-05-13 22:12:00,
2013-05-13 18:23:00,47.0,33.0,30.11,WNW,282,8.0,13.0,58,0.00,,,0.00,,2013-05-13 22:23:00,
2013-05-13 18:32:00,47.0,32.0,30.11,NW,312,7.0,13.0,56,0.00,,,0.00,,2013-05-13 22:32:00,
2013-05-13 18:43:00,46.0,32.0,30.11,NW,309,4.0,11.0,59,0.00,,,0.00,,2013-05-13 22:43:00,
2013-05-13 18:52:00,46.0,32.0,30.11,NW,309,4.0,11.0,59,0.00,,,0.00,,2013-05-13 22:52:00,
2013-05-13 19:02:00,45.0,32.0,30.11,NNW,327,5.0,9.0,59,0.00,,,0.00,,2013-05-13 23:02:00,
2013-05-13 19:13:00,45.0,32.0,30.11,NNW,327,5.0,9.0,59,0.00,,,0.00,,2013-05-13 23:13:00,
2013-05-13 19:23:00,46.0,34.0,30.12,NNE,26,2.0,13.0,63,0.00,,,0.00,,2013-05-13 23:23:00,
2013-05-13 19:34:00,45.0,34.0,30.12,North,349,3.0,10.0,66,0.00,,,0.00,,2013-05-13 23:34:00,
2013-05-13 19:42:00,45.0,34.0,30.12,North,349,3.0,10.0,66,0.00,,,0.00,,2013-05-13 23:42:00,
2013-05-13 19:54:00,45.0,34.0,30.12,NW,306,4.0,7.0,64,0.00,,,0.00,,2013-05-13 23:54:00,
2013-05-13 20:02:00,45.0,34.0,30.11,WNW,297,3.0,10.0,64,0.00,,,0.00,,2013-05-14 00:02:00,
2013-05-13 20:13:00,45.0,34.0,30.11,WNW,297,3.0,10.0,64,0.00,,,0.00,,2013-05-14 00:13:00,
2013-05-13 20:22:00,45.0,35.0,30.12,North,355,0.0,5.0,67,0.00,,,0.00,,2013-05-14 00:22:00,
2013-05-13 20:32:00,44.0,34.0,30.12,North,355,0.0,1.0,67,0.00,,,0.00,,2013-05-14 00:32:00,
2013-05-13 20:42:00,44.0,34.0,30.12,North,355,0.0,1.0,67,0.00,,,0.00,,2013-05-14 00:42:00,
2013-05-13 20:52:00,43.0,33.0,30.13,North,355,0.0,0.0,68,0.00,,,0.00,,2013-05-14 00:52:00,
2013-05-13 21:02:00,42.0,33.0,30.14,North,355,0.0,0.0,71,0.00,,,0.00,,2013-05-14 01:02:00,
2013-05-13 21:11:00,42.0,33.0,30.14,North,355,0.0,0.0,71,0.00,,,0.00,,2013-05-14 01:11:00,
2013-05-13 21:21:00,41.0,31.0,30.14,NNW,340,0.0,0.0,68,0.00,,,0.00,,2013-05-14 01:21:00,
2013-05-13 21:32:00,41.0,32.0,30.14,NNW,340,0.0,2.0,71,0.00,,,0.00,,2013-05-14 01:32:00,
2013-05-13 21:43:00,41.0,32.0,30.14,NNW,340,0.0,2.0,71,0.00,,,0.00,,2013-05-14 01:43:00,
2013-05-13 21:53:00,40.0,32.0,30.16,NNW,340,0.0,0.0,72,0.00,,,0.00,,2013-05-14 01:53:00,
2013-05-13 22:02:00,40.0,32.0,30.16,NNW,340,0.0,0.0,72,0.00,,,0.00,,2013-05-14 02:02:00,
2013-05-13 22:12:00,40.0,32.0,30.16,NNW,340,0.0,0.0,72,0.00,,,0.00,,2013-05-14 02:12:00,
2013-05-13 22:22:00,39.0,30.0,30.17,NNW,340,0.0,1.0,71,0.00,,,0.00,,2013-05-14 02:22:00,
2013-05-13 22:32:00,39.0,30.0,30.17,ENE,57,1.0,2.0,70,0.00,,,0.00,,2013-05-14 02:32:00,
2013-05-13 22:42:00,39.0,30.0,30.17,ENE,57,1.0,2.0,70,0.00,,,0.00,,2013-05-14 02:42:00,
2013-05-13 22:52:00,39.0,31.0,30.17,ENE,57,1.0,2.0,72,0.00,,,0.00,,2013-05-14 02:52:00,
2013-05-13 23:01:00,38.0,30.0,30.17,ENE,67,1.0,2.0,72,0.00,,,0.00,,2013-05-14 03:01:00,
2013-05-13 23:11:00,38.0,30.0,30.17,ENE,67,1.0,2.0,72,0.00,,,0.00,,2013-05-14 03:11:00,
2013-05-13 23:21:00,38.0,30.0,30.18,ENE,74,0.0,2.0,73,0.00,,,0.00,,2013-05-14 03:21:00,
2013-05-13 23:33:00,38.0,30.0,30.17,ENE,74,1.0,2.0,72,0.00,,,0.00,,2013-05-14 03:33:00,
2013-05-13 23:42:00,38.0,30.0,30.17,ENE,74,1.0,2.0,72,0.00,,,0.00,,2013-05-14 03:42:00,
2013-05-13 23:53:00,39.0,30.0,30.17,ENE,74,0.0,2.0,69,0.00,,,0.00,,2013-05-14 03:53:00,